Weather observations for the past three days for
Lebanon Municipal Airport
Imperial (Metric)
Date Time (edt) Wind (mph) Vis. (mi.) Weather Sky Cond. Temperature (ºF) Relative Humidity Wind Chill (°F) Heat Index (°F) Pressure Precipitation (in)
Air Dwpt 6 hour altimeter (in) sea level (mb) 1 hr 3 hr 6 hr
Max. Min.
16 04:53 Calm 10.00 Mostly Cloudy FEW037 BKN060 72 68 87% 29.73 1005.6
16 03:53 S 7 10.00 Partly Cloudy FEW028 SCT050 72 69.1 91% 29.73 1005.3
16 02:53 Calm 7.00 A Few Clouds FEW004 73 71.1 94% 29.74 1005.5
16 01:53 Calm 9.00 Partly Cloudy SCT110 73.9 72 81 73.9 94% 29.73 1005.4 0.01 0.03
16 00:53 SE 6 10.00 A Few Clouds FEW035 FEW065 FEW090 75.9 72 88% 76 29.72 1004.9 0.02
15 23:53 S 6 10.00 Fair CLR 79 70 74% 82 29.73 1005.3
15 22:53 S 8 10.00 Fair CLR 81 70 69% 84 29.75 1006.0
15 21:53 S 5 10.00 Fair CLR 77 70 79% 79 29.77 1006.7
15 20:53 S 5 10.00 Fair CLR 77 70 79% 79 29.76 1006.5
15 19:53 S 3 10.00 Fair CLR 80.1 73 93 80.1 79% 84 29.75 1006.2
15 18:53 W 3 10.00 Fair CLR 89.1 69.1 52% 94 29.76 1006.4
15 17:53 S 5 10.00 Mostly Cloudy FEW050 BKN065 91 68 47% 95 29.75 1006.2
15 16:53 Vrbl 3 10.00 Partly Cloudy FEW050 SCT065 90 69.1 50% 95 29.77 1006.8
15 15:53 SW 7 10.00 Mostly Cloudy SCT050 BKN060 91 68 47% 95 29.79 1007.4
15 14:53 W 9 10.00 Partly Cloudy SCT048 SCT065 91.9 69.1 47% 97 29.81 1008.2
15 13:53 SW 10 G 21 10.00 Partly Cloudy SCT049 90 68 91 73 48% 94 29.82 1008.4
15 12:53 SW 13 10.00 Partly Cloudy SCT043 89.1 68 50% 93 29.84 1009.1
15 11:53 W 9 10.00 Fair CLR 87.1 68 53% 91 29.86 1009.9
15 10:53 SW 7 10.00 Fair CLR 82 66.9 60% 85 29.86 1010.1
15 09:53 NW 3 10.00 Fair CLR 80.1 68 67% 83 29.87 1010.2
15 08:53 Calm 10.00 Fair CLR 75.9 66 72% 77 29.87 1010.4
15 07:53 Calm 10.00 Mostly Cloudy BKN110 72 66 72 64 82% 29.88 1010.7
15 06:53 Calm 10.00 Fair CLR 68 64.9 90% 29.88 1010.6
15 05:53 Calm 10.00 Mostly Cloudy FEW065 BKN080 64.9 63 93% 29.89 1010.8
15 04:53 Calm 10.00 Mostly Cloudy FEW070 SCT080 BKN110 66.9 64 91% 29.88 1010.6
15 03:53 Calm 10.00 Overcast OVC075 66 64 93% 29.88 1010.7
15 02:53 Calm 10.00 Overcast OVC100 66 64 93% 29.89 1010.8
15 01:53 Calm 10.00 A Few Clouds FEW070 64 62.1 77 63 93% 29.9 1011.5
15 00:53 Calm 10.00 Fair CLR 64 62.1 93% 29.92 1012.1
14 23:53 Calm 10.00 Fair CLR 64.9 63 93% 29.92 1012.3
14 22:53 Calm 10.00 Fair CLR 66.9 64 91% 29.92 1012.0
14 21:53 Calm 10.00 Fair CLR 69.1 64 84% 29.92 1012.3
14 20:53 Calm 10.00 Fair CLR 72 66 82% 29.93 1012.3
14 19:53 Calm 10.00 Fair CLR 77 68 90 77 74% 79 29.93 1012.3
14 18:53 W 6 10.00 Fair CLR 86 61 43% 86 29.92 1011.9
14 17:53 W 3 10.00 Fair CLR 88 60.1 39% 88 29.92 1011.8
14 16:53 NW 6 10.00 Partly Cloudy SCT060 88 64 45% 89 29.92 1012.0
14 15:53 Vrbl 5 10.00 Mostly Cloudy BKN050 88 64 45% 89 29.94 1012.6
14 14:53 NW 5 10.00 Mostly Cloudy BKN060 87.1 63 45% 88 29.96 1013.3
14 13:53 Calm 10.00 A Few Clouds FEW050 88 63 88 69.1 43% 89 29.98 1013.9
14 12:53 Vrbl 3 10.00 Fair CLR 84 63 49% 85 30 1014.8
14 11:53 Calm 10.00 Fair CLR 82.9 64.9 55% 85 30.02 1015.4
14 10:53 Calm 10.00 Fair CLR 80.1 68 67% 83 30.04 1016.2
14 09:53 Calm 10.00 Fair CLR 77 69.1 77% 79 30.05 1016.6
14 08:53 Calm 10.00 Mostly Cloudy BKN004 72 66 82% 30.07 1017.1
14 07:53 Calm 10.00 Mostly Cloudy BKN001 69.1 66 69.1 66.9 90% 30.07 1017.2
14 06:53 Calm 7.00 Overcast OVC001 68 66 93% 30.06 1017.0
14 05:53 W 3 1.50 Fog/Mist OVC001 68 66.9 96% 30.07 1017.2
14 04:53 Calm 8.00 Overcast OVC001 68 66.9 96% 30.06 1017.1
14 03:53 S 5 3.00 Fog/Mist OVC001 69.1 68 96% 30.06 1016.7
14 02:53 Calm 1.50 Fog/Mist OVC001 69.1 68 96% 30.05 1016.5
14 01:53 Calm 0.25 Fog VV001 69.1 69.1 75.9 66.9 100% 30.06 1016.7
14 00:53 Calm 2.50 Fog/Mist OVC001 70 69.1 97% 30.07 1017.1
13 23:53 Calm 5.00 Fog/Mist BKN001 68 66.9 96% 30.08 1017.3
13 22:53 S 3 4.00 Fog/Mist FEW001 68 66.9 96% 30.08 1017.3
13 21:53 Calm 10.00 Fair CLR 70 68 93% 30.08 1017.4
13 20:53 Calm 10.00 Fair CLR 72 70 94% 30.06 1017.0
13 19:53 Calm 10.00 Fair CLR 75.9 73 90 73 91% 76 30.06 1016.9 0.13
13 18:53 Calm 10.00 Partly Cloudy SCT100 80.1 69.1 69% 83 30.06 1016.7
13 17:53 N 3 10.00 Fair CLR 80.1 70 71% 83 30.06 1016.8 0.01
13 16:53 N 9 1.75 Light Rain FEW027 BKN047 OVC095 73 68 84% 30.07 1017.2 0.12 0.12
13 15:53 Vrbl 6 10.00 A Few Clouds FEW110 89.1 66.9 48% 92 30.05 1016.3
13 14:53 W 6 10.00 Mostly Cloudy FEW046 BKN110 87.1 66.9 51% 90 30.06 1016.4
13 13:53 NW 7 10.00 Mostly Cloudy BKN065 BKN090 88 66.9 89.1 73 50% 91 30.07 1017.0
13 12:53 Vrbl 3 10.00 Mostly Cloudy FEW038 SCT048 BKN060 86 66.9 53% 89 30.1 1017.8
13 11:53 Vrbl 5 10.00 Mostly Cloudy BKN045 84.9 69.1 59% 89 30.12 1018.6
13 10:53 Calm 10.00 A Few Clouds FEW016 82 71.1 69% 86 30.13 1019.2
13 09:53 Calm 10.00 Mostly Cloudy FEW009 SCT040 BKN060 79 71.1 77% 82 30.14 1019.3
13 08:53 Calm 10.00 Partly Cloudy SCT005 SCT030 SCT060 75.9 71.1 85% 76 30.15 1020.0
13 07:53 Calm 4.00 Fog/Mist SCT003 BKN007 BKN070 73 70 73.9 69.1 90% 30.17 1020.5
13 06:53 Calm 2.00 Fog/Mist SCT001 BKN011 BKN065 71.1 69.1 94% 30.17 1020.4
13 05:53 Calm 8.00 Mostly Cloudy BKN001 BKN050 69.1 68 96% 30.16 1020.0
Date Time (edt) Wind (mph) Vis. (mi.) Weather Sky Cond. Air Dwpt Max. Min. Relative Humidity Wind Chill (°F) Heat Index (°F) altimeter (in) sea level (mb) 1 hr 3 hr 6 hr
6 hour
Temperature (ºF) Pressure Precipitation (in)